owner,sensor,date,latitude,longitude,vertical_datum,wind_speed,wind_to_direction,wind_speed_of_gust,qcFlag 
SCCF RECON,ioos:station:SCCF:53:1,2014-05-01T00:00:00Z,26.6493,-81.8810,2.11,3.7,57.4,-9999.0,'1111122,1111122,1111122' 
SCCF RECON,ioos:station:SCCF:53:1,2014-05-01T00:15:00Z,26.6493,-81.8810,2.11,1.2,81.1,-9999.0,'1111122,1111122,1111122' 
SCCF RECON,ioos:station:SCCF:53:1,2014-05-01T00:30:00Z,26.6493,-81.8810,2.11,2.3,49.6,-9999.0,'1111122,1111122,1111122' 
SCCF RECON,ioos:station:SCCF:53:1,2014-05-01T00:45:00Z,26.6493,-81.8810,2.11,1.8,122.2,-9999.0,'1111122,1111122,1111122' 
SCCF RECON,ioos:station:SCCF:53:1,2014-05-01T01:00:00Z,26.6493,-81.8810,2.11,2.5,138.1,-9999.0,'1111122,1111122,1111122' 
SCCF RECON,ioos:station:SCCF:53:1,2014-05-01T01:15:00Z,26.6493,-81.8810,2.11,3.3,86.6,-9999.0,'1111122,1111122,1111122' 
SCCF RECON,ioos:station:SCCF:53:1,2014-05-01T01:30:00Z,26.6493,-81.8810,2.11,3.0,100.3,-9999.0,'1111122,1111122,1111122' 
SCCF RECON,ioos:station:SCCF:53:1,2014-05-01T01:45:00Z,26.6493,-81.8810,2.11,3.4,117.4,-9999.0,'1111122,1111122,1111122' 
SCCF RECON,ioos:station:SCCF:53:1,2014-05-01T02:00:00Z,26.6493,-81.8810,2.11,2.2,72.9,-9999.0,'1111122,1111122,1111122' 
SCCF RECON,ioos:station:SCCF:53:1,2014-05-01T02:15:00Z,26.6493,-81.8810,2.11,1.9,39.2,-9999.0,'1111122,1111122,1111122' 
SCCF RECON,ioos:station:SCCF:53:1,2014-05-01T02:30:00Z,26.6493,-81.8810,2.11,4.8,56.8,-9999.0,'1111122,1111122,1111122' 
SCCF RECON,ioos:station:SCCF:53:1,2014-05-01T02:45:00Z,26.6493,-81.8810,2.11,5.4,62.1,-9999.0,'1111122,1111122,1111122' 
SCCF RECON,ioos:station:SCCF:53:1,2014-05-01T03:00:00Z,26.6493,-81.8810,2.11,3.5,74.6,-9999.0,'1111122,1111122,1111122' 
SCCF RECON,ioos:station:SCCF:53:1,2014-05-01T03:15:00Z,26.6493,-81.8810,2.11,3.8,80.5,-9999.0,'1111122,1111122,1111122' 
SCCF RECON,ioos:station:SCCF:53:1,2014-05-01T03:30:00Z,26.6493,-81.8810,2.11,4.2,67.4,-9999.0,'1111122,1111122,1111122' 
SCCF RECON,ioos:station:SCCF:53:1,2014-05-01T03:45:00Z,26.6493,-81.8810,2.11,3.8,98.0,-9999.0,'1111122,1111122,1111122' 
SCCF RECON,ioos:station:SCCF:53:1,2014-05-01T04:00:00Z,26.6493,-81.8810,2.11,4.5,108.3,-9999.0,'1111122,1111122,1111122' 
SCCF RECON,ioos:station:SCCF:53:1,2014-05-01T04:15:00Z,26.6493,-81.8810,2.11,4.3,85.5,-9999.0,'1111122,1111122,1111122' 
SCCF RECON,ioos:station:SCCF:53:1,2014-05-01T04:30:00Z,26.6493,-81.8810,2.11,4.1,108.2,-9999.0,'1111122,1111122,1111122' 
SCCF RECON,ioos:station:SCCF:53:1,2014-05-01T04:45:00Z,26.6493,-81.8810,2.11,3.1,87.5,-9999.0,'1111122,1111122,1111122' 
SCCF RECON,ioos:station:SCCF:53:1,2014-05-01T05:00:00Z,26.6493,-81.8810,2.11,3.7,100.6,-9999.0,'1111122,1111122,1111122' 
SCCF RECON,ioos:station:SCCF:53:1,2014-05-01T05:15:00Z,26.6493,-81.8810,2.11,3.0,91.3,-9999.0,'1111122,1111122,1111122' 
SCCF RECON,ioos:station:SCCF:53:1,2014-05-01T05:30:00Z,26.6493,-81.8810,2.11,3.3,86.1,-9999.0,'1111122,1111122,1111122' 
SCCF RECON,ioos:station:SCCF:53:1,2014-05-01T05:45:00Z,26.6493,-81.8810,2.11,2.9,55.7,-9999.0,'1111122,1111122,1111122' 
SCCF RECON,ioos:station:SCCF:53:1,2014-05-01T06:00:00Z,26.6493,-81.8810,2.11,3.1,65.5,-9999.0,'1111122,1111122,1111122' 
SCCF RECON,ioos:station:SCCF:53:1,2014-05-01T06:15:00Z,26.6493,-81.8810,2.11,3.0,90.4,-9999.0,'1111122,1111122,1111122' 
SCCF RECON,ioos:station:SCCF:53:1,2014-05-01T06:30:00Z,26.6493,-81.8810,2.11,1.6,118.7,-9999.0,'1111122,1111122,1111122' 
SCCF RECON,ioos:station:SCCF:53:1,2014-05-01T06:45:00Z,26.6493,-81.8810,2.11,1.8,98.1,-9999.0,'1111122,1111122,1111122' 
SCCF RECON,ioos:station:SCCF:53:1,2014-05-01T07:00:00Z,26.6493,-81.8810,2.11,1.1,161.3,-9999.0,'1111122,1111122,1111122' 
SCCF RECON,ioos:station:SCCF:53:1,2014-05-01T07:15:00Z,26.6493,-81.8810,2.11,1.7,113.4,-9999.0,'1111122,1111122,1111122' 
SCCF RECON,ioos:station:SCCF:53:1,2014-05-01T07:30:00Z,26.6493,-81.8810,2.11,2.4,114.6,-9999.0,'1111122,1111122,1111122' 
SCCF RECON,ioos:station:SCCF:53:1,2014-05-01T07:45:00Z,26.6493,-81.8810,2.11,2.5,143.9,-9999.0,'1111122,1111122,1111122' 
SCCF RECON,ioos:station:SCCF:53:1,2014-05-01T08:00:00Z,26.6493,-81.8810,2.11,3.1,137.8,-9999.0,'1111122,1111122,1111122' 
SCCF RECON,ioos:station:SCCF:53:1,2014-05-01T08:15:00Z,26.6493,-81.8810,2.11,2.6,144.3,-9999.0,'1111122,1111122,1111122' 
SCCF RECON,ioos:station:SCCF:53:1,2014-05-01T08:30:00Z,26.6493,-81.8810,2.11,2.2,139.9,-9999.0,'1111122,1111122,1111122' 
SCCF RECON,ioos:station:SCCF:53:1,2014-05-01T08:45:00Z,26.6493,-81.8810,2.11,3.2,134.9,-9999.0,'1111122,1111122,1111122' 
SCCF RECON,ioos:station:SCCF:53:1,2014-05-01T09:00:00Z,26.6493,-81.8810,2.11,2.2,131.7,-9999.0,'1111122,1111122,1111122' 
SCCF RECON,ioos:station:SCCF:53:1,2014-05-01T09:15:00Z,26.6493,-81.8810,2.11,3.2,143.1,-9999.0,'1111122,1111122,1111122' 
SCCF RECON,ioos:station:SCCF:53:1,2014-05-01T09:30:00Z,26.6493,-81.8810,2.11,4.6,151.0,-9999.0,'1111122,1111122,1111122' 
SCCF RECON,ioos:station:SCCF:53:1,2014-05-01T09:45:00Z,26.6493,-81.8810,2.11,3.4,142.4,-9999.0,'1111122,1111122,1111122' 
SCCF RECON,ioos:station:SCCF:53:1,2014-05-01T10:00:00Z,26.6493,-81.8810,2.11,2.8,158.4,-9999.0,'1111122,1111122,1111122' 
SCCF RECON,ioos:station:SCCF:53:1,2014-05-01T10:15:00Z,26.6493,-81.8810,2.11,3.5,143.5,-9999.0,'1111122,1111122,1111122' 
SCCF RECON,ioos:station:SCCF:53:1,2014-05-01T10:30:00Z,26.6493,-81.8810,2.11,3.8,141.9,-9999.0,'1111122,1111122,1111122' 
SCCF RECON,ioos:station:SCCF:53:1,2014-05-01T10:45:00Z,26.6493,-81.8810,2.11,3.5,143.5,-9999.0,'1111122,1111122,1111122' 
SCCF RECON,ioos:station:SCCF:53:1,2014-05-01T11:00:00Z,26.6493,-81.8810,2.11,3.1,168.5,-9999.0,'1111122,1111122,1111122' 
SCCF RECON,ioos:station:SCCF:53:1,2014-05-01T11:15:00Z,26.6493,-81.8810,2.11,3.5,161.6,-9999.0,'1111122,1111122,1111122' 
SCCF RECON,ioos:station:SCCF:53:1,2014-05-01T11:30:00Z,26.6493,-81.8810,2.11,3.8,146.3,-9999.0,'1111122,1111122,1111122' 
SCCF RECON,ioos:station:SCCF:53:1,2014-05-01T11:45:00Z,26.6493,-81.8810,2.11,2.9,146.5,-9999.0,'1111122,1111122,1111122' 
SCCF RECON,ioos:station:SCCF:53:1,2014-05-01T12:00:00Z,26.6493,-81.8810,2.11,3.1,183.6,-9999.0,'1111122,1111122,1111122' 
SCCF RECON,ioos:station:SCCF:53:1,2014-05-01T12:15:00Z,26.6493,-81.8810,2.11,2.9,152.4,-9999.0,'1111122,1111122,1111122' 
SCCF RECON,ioos:station:SCCF:53:1,2014-05-01T12:30:00Z,26.6493,-81.8810,2.11,3.2,180.0,-9999.0,'1111122,1111122,1111122' 
SCCF RECON,ioos:station:SCCF:53:1,2014-05-01T12:45:00Z,26.6493,-81.8810,2.11,2.5,174.7,-9999.0,'1111122,1111122,1111122' 
SCCF RECON,ioos:station:SCCF:53:1,2014-05-01T13:00:00Z,26.6493,-81.8810,2.11,2.8,139.3,-9999.0,'1111122,1111122,1111122' 
SCCF RECON,ioos:station:SCCF:53:1,2014-05-01T13:15:00Z,26.6493,-81.8810,2.11,3.7,172.1,-9999.0,'1111122,1111122,1111122' 
SCCF RECON,ioos:station:SCCF:53:1,2014-05-01T13:30:00Z,26.6493,-81.8810,2.11,3.5,156.3,-9999.0,'1111122,1111122,1111122' 
SCCF RECON,ioos:station:SCCF:53:1,2014-05-01T13:45:00Z,26.6493,-81.8810,2.11,6.0,190.4,-9999.0,'1111122,1111122,1111122' 
SCCF RECON,ioos:station:SCCF:53:1,2014-05-01T14:00:00Z,26.6493,-81.8810,2.11,6.7,184.8,-9999.0,'1111122,1111122,1111122' 
SCCF RECON,ioos:station:SCCF:53:1,2014-05-01T14:15:00Z,26.6493,-81.8810,2.11,4.6,172.5,-9999.0,'1111122,1111122,1111122' 
SCCF RECON,ioos:station:SCCF:53:1,2014-05-01T14:30:00Z,26.6493,-81.8810,2.11,5.0,194.2,-9999.0,'1111122,1111122,1111122' 
SCCF RECON,ioos:station:SCCF:53:1,2014-05-01T14:45:00Z,26.6493,-81.8810,2.11,5.3,194.3,-9999.0,'1111122,1111122,1111122' 
SCCF RECON,ioos:station:SCCF:53:1,2014-05-01T15:00:00Z,26.6493,-81.8810,2.11,8.2,206.4,-9999.0,'1111122,1111122,1111122' 
SCCF RECON,ioos:station:SCCF:53:1,2014-05-01T15:15:00Z,26.6493,-81.8810,2.11,5.3,178.7,-9999.0,'1111122,1111122,1111122' 
SCCF RECON,ioos:station:SCCF:53:1,2014-05-01T15:30:00Z,26.6493,-81.8810,2.11,6.0,209.9,-9999.0,'1111122,1111122,1111122' 
SCCF RECON,ioos:station:SCCF:53:1,2014-05-01T15:45:00Z,26.6493,-81.8810,2.11,7.1,218.8,-9999.0,'1111122,1111122,1111122' 
SCCF RECON,ioos:station:SCCF:53:1,2014-05-01T16:00:00Z,26.6493,-81.8810,2.11,5.0,175.9,-9999.0,'1111122,1111122,1111122' 
SCCF RECON,ioos:station:SCCF:53:1,2014-05-01T16:15:00Z,26.6493,-81.8810,2.11,5.8,200.6,-9999.0,'1111122,1111122,1111122' 
SCCF RECON,ioos:station:SCCF:53:1,2014-05-01T16:30:00Z,26.6493,-81.8810,2.11,5.9,217.2,-9999.0,'1111122,1111122,1111122' 
SCCF RECON,ioos:station:SCCF:53:1,2014-05-01T16:45:00Z,26.6493,-81.8810,2.11,6.6,216.3,-9999.0,'1111122,1111122,1111122' 
SCCF RECON,ioos:station:SCCF:53:1,2014-05-01T17:00:00Z,26.6493,-81.8810,2.11,7.9,223.5,-9999.0,'1111122,1111122,1111122' 
SCCF RECON,ioos:station:SCCF:53:1,2014-05-01T17:15:00Z,26.6493,-81.8810,2.11,7.7,220.5,-9999.0,'1111122,1111122,1111122' 
SCCF RECON,ioos:station:SCCF:53:1,2014-05-01T17:30:00Z,26.6493,-81.8810,2.11,9.8,209.9,-9999.0,'1111122,1111122,1111122' 
SCCF RECON,ioos:station:SCCF:53:1,2014-05-01T17:45:00Z,26.6493,-81.8810,2.11,8.5,217.9,-9999.0,'1111122,1111122,1111122' 
SCCF RECON,ioos:station:SCCF:53:1,2014-05-01T18:00:00Z,26.6493,-81.8810,2.11,10.3,217.2,-9999.0,'1111122,1111122,1111122' 
SCCF RECON,ioos:station:SCCF:53:1,2014-05-01T18:15:00Z,26.6493,-81.8810,2.11,9.3,222.9,-9999.0,'1111122,1111122,1111122' 
SCCF RECON,ioos:station:SCCF:53:1,2014-05-01T18:30:00Z,26.6493,-81.8810,2.11,9.0,227.2,-9999.0,'1111122,1111122,1111122' 
SCCF RECON,ioos:station:SCCF:53:1,2014-05-01T18:45:00Z,26.6493,-81.8810,2.11,8.4,219.9,-9999.0,'1111122,1111122,1111122' 
SCCF RECON,ioos:station:SCCF:53:1,2014-05-01T19:00:00Z,26.6493,-81.8810,2.11,9.3,224.1,-9999.0,'1111122,1111122,1111122' 
SCCF RECON,ioos:station:SCCF:53:1,2014-05-01T19:15:00Z,26.6493,-81.8810,2.11,9.0,213.8,-9999.0,'1111122,1111122,1111122' 
SCCF RECON,ioos:station:SCCF:53:1,2014-05-01T19:30:00Z,26.6493,-81.8810,2.11,9.0,224.0,-9999.0,'1111122,1111122,1111122' 
SCCF RECON,ioos:station:SCCF:53:1,2014-05-01T19:45:00Z,26.6493,-81.8810,2.11,8.4,228.8,-9999.0,'1111122,1111122,1111122' 
SCCF RECON,ioos:station:SCCF:53:1,2014-05-01T20:00:00Z,26.6493,-81.8810,2.11,8.9,223.6,-9999.0,'1111122,1111122,1111122' 
SCCF RECON,ioos:station:SCCF:53:1,2014-05-01T20:15:00Z,26.6493,-81.8810,2.11,9.5,216.9,-9999.0,'1111122,1111122,1111122' 
SCCF RECON,ioos:station:SCCF:53:1,2014-05-01T20:30:00Z,26.6493,-81.8810,2.11,9.0,207.8,-9999.0,'1111122,1111122,1111122' 
SCCF RECON,ioos:station:SCCF:53:1,2014-05-01T20:45:00Z,26.6493,-81.8810,2.11,7.5,226.7,-9999.0,'1111122,1111122,1111122' 
SCCF RECON,ioos:station:SCCF:53:1,2014-05-01T21:00:00Z,26.6493,-81.8810,2.11,7.9,218.4,-9999.0,'1111122,1111122,1111122' 
SCCF RECON,ioos:station:SCCF:53:1,2014-05-01T21:15:00Z,26.6493,-81.8810,2.11,7.3,218.9,-9999.0,'1111122,1111122,1111122' 
SCCF RECON,ioos:station:SCCF:53:1,2014-05-01T21:30:00Z,26.6493,-81.8810,2.11,7.5,219.8,-9999.0,'1111122,1111122,1111122' 
SCCF RECON,ioos:station:SCCF:53:1,2014-05-01T21:45:00Z,26.6493,-81.8810,2.11,7.3,219.6,-9999.0,'1111122,1111122,1111122' 
SCCF RECON,ioos:station:SCCF:53:1,2014-05-01T22:00:00Z,26.6493,-81.8810,2.11,7.2,215.1,-9999.0,'1111122,1111122,1111122' 
SCCF RECON,ioos:station:SCCF:53:1,2014-05-01T22:15:00Z,26.6493,-81.8810,2.11,6.8,215.5,-9999.0,'1111122,1111122,1111122' 
SCCF RECON,ioos:station:SCCF:53:1,2014-05-01T22:30:00Z,26.6493,-81.8810,2.11,6.8,225.2,-9999.0,'1111122,1111122,1111122' 
SCCF RECON,ioos:station:SCCF:53:1,2014-05-01T22:45:00Z,26.6493,-81.8810,2.11,6.5,226.8,-9999.0,'1111122,1111122,1111122' 
SCCF RECON,ioos:station:SCCF:53:1,2014-05-01T23:00:00Z,26.6493,-81.8810,2.11,5.8,230.6,-9999.0,'1111122,1111122,1111122' 
SCCF RECON,ioos:station:SCCF:53:1,2014-05-01T23:15:00Z,26.6493,-81.8810,2.11,5.6,216.9,-9999.0,'1111122,1111122,1111122' 
SCCF RECON,ioos:station:SCCF:53:1,2014-05-01T23:30:00Z,26.6493,-81.8810,2.11,5.2,222.1,-9999.0,'1111122,1111122,1111122' 
SCCF RECON,ioos:station:SCCF:53:1,2014-05-01T23:45:00Z,26.6493,-81.8810,2.11,4.3,215.4,-9999.0,'1111122,1111122,1111122' 
SCCF RECON,ioos:station:SCCF:53:1,2014-05-02T00:00:00Z,26.6493,-81.8810,2.11,4.6,225.5,-9999.0,'1111122,1111122,1111122' 
SCCF RECON,ioos:station:SCCF:53:1,2014-05-02T00:15:00Z,26.6493,-81.8810,2.11,3.8,241.9,-9999.0,'1111122,1111122,1111122' 
SCCF RECON,ioos:station:SCCF:53:1,2014-05-02T00:30:00Z,26.6493,-81.8810,2.11,2.9,229.9,-9999.0,'1111122,1111122,1111122' 
SCCF RECON,ioos:station:SCCF:53:1,2014-05-02T00:45:00Z,26.6493,-81.8810,2.11,3.3,235.0,-9999.0,'1111122,1111122,1111122' 
SCCF RECON,ioos:station:SCCF:53:1,2014-05-02T01:00:00Z,26.6493,-81.8810,2.11,2.7,246.3,-9999.0,'1111122,1111122,1111122' 
SCCF RECON,ioos:station:SCCF:53:1,2014-05-02T01:15:00Z,26.6493,-81.8810,2.11,3.0,249.0,-9999.0,'1111122,1111122,1111122' 
SCCF RECON,ioos:station:SCCF:53:1,2014-05-02T01:30:00Z,26.6493,-81.8810,2.11,2.6,241.2,-9999.0,'1111122,1111122,1111122' 
SCCF RECON,ioos:station:SCCF:53:1,2014-05-02T01:45:00Z,26.6493,-81.8810,2.11,2.2,246.5,-9999.0,'1111122,1111122,1111122' 
SCCF RECON,ioos:station:SCCF:53:1,2014-05-02T02:00:00Z,26.6493,-81.8810,2.11,1.8,234.2,-9999.0,'1111122,1111122,1111122' 
SCCF RECON,ioos:station:SCCF:53:1,2014-05-02T02:15:00Z,26.6493,-81.8810,2.11,1.6,238.4,-9999.0,'1111122,1111122,1111122' 
SCCF RECON,ioos:station:SCCF:53:1,2014-05-02T02:30:00Z,26.6493,-81.8810,2.11,1.0,262.7,-9999.0,'1111122,1111122,1111122' 
SCCF RECON,ioos:station:SCCF:53:1,2014-05-02T02:45:00Z,26.6493,-81.8810,2.11,1.3,140.2,-9999.0,'1111122,1111122,1111122' 
SCCF RECON,ioos:station:SCCF:53:1,2014-05-02T03:00:00Z,26.6493,-81.8810,2.11,1.2,195.6,-9999.0,'1111122,1111122,1111122' 
SCCF RECON,ioos:station:SCCF:53:1,2014-05-02T03:15:00Z,26.6493,-81.8810,2.11,1.2,174.5,-9999.0,'1111122,1111122,1111122' 
SCCF RECON,ioos:station:SCCF:53:1,2014-05-02T03:30:00Z,26.6493,-81.8810,2.11,1.2,176.4,-9999.0,'1111122,1111122,1111122' 
SCCF RECON,ioos:station:SCCF:53:1,2014-05-02T03:45:00Z,26.6493,-81.8810,2.11,0.8,149.5,-9999.0,'1111122,1111122,1111122' 
SCCF RECON,ioos:station:SCCF:53:1,2014-05-02T04:00:00Z,26.6493,-81.8810,2.11,1.9,177.9,-9999.0,'1111122,1111122,1111122' 
SCCF RECON,ioos:station:SCCF:53:1,2014-05-02T04:15:00Z,26.6493,-81.8810,2.11,1.6,148.3,-9999.0,'1111122,1111122,1111122' 
SCCF RECON,ioos:station:SCCF:53:1,2014-05-02T04:30:00Z,26.6493,-81.8810,2.11,1.8,143.9,-9999.0,'1111122,1111122,1111122' 
SCCF RECON,ioos:station:SCCF:53:1,2014-05-02T04:45:00Z,26.6493,-81.8810,2.11,2.5,143.9,-9999.0,'1111122,1111122,1111122' 
SCCF RECON,ioos:station:SCCF:53:1,2014-05-02T05:00:00Z,26.6493,-81.8810,2.11,1.6,155.1,-9999.0,'1111122,1111122,1111122' 
SCCF RECON,ioos:station:SCCF:53:1,2014-05-02T05:15:00Z,26.6493,-81.8810,2.11,1.4,163.1,-9999.0,'1111122,1111122,1111122' 
SCCF RECON,ioos:station:SCCF:53:1,2014-05-02T05:30:00Z,26.6493,-81.8810,2.11,2.6,145.8,-9999.0,'1111122,1111122,1111122' 
SCCF RECON,ioos:station:SCCF:53:1,2014-05-02T05:45:00Z,26.6493,-81.8810,2.11,2.1,137.9,-9999.0,'1111122,1111122,1111122' 
SCCF RECON,ioos:station:SCCF:53:1,2014-05-02T06:00:00Z,26.6493,-81.8810,2.11,2.0,126.0,-9999.0,'1111122,1111122,1111122' 
SCCF RECON,ioos:station:SCCF:53:1,2014-05-02T06:15:00Z,26.6493,-81.8810,2.11,1.6,145.0,-9999.0,'1111122,1111122,1111122' 
SCCF RECON,ioos:station:SCCF:53:1,2014-05-02T06:30:00Z,26.6493,-81.8810,2.11,2.1,136.8,-9999.0,'1111122,1111122,1111122' 
SCCF RECON,ioos:station:SCCF:53:1,2014-05-02T06:45:00Z,26.6493,-81.8810,2.11,2.4,133.5,-9999.0,'1111122,1111122,1111122' 
SCCF RECON,ioos:station:SCCF:53:1,2014-05-02T07:00:00Z,26.6493,-81.8810,2.11,2.3,159.6,-9999.0,'1111122,1111122,1111122' 
SCCF RECON,ioos:station:SCCF:53:1,2014-05-02T07:15:00Z,26.6493,-81.8810,2.11,2.1,153.3,-9999.0,'1111122,1111122,1111122' 
SCCF RECON,ioos:station:SCCF:53:1,2014-05-02T07:30:00Z,26.6493,-81.8810,2.11,3.0,137.8,-9999.0,'1111122,1111122,1111122' 
SCCF RECON,ioos:station:SCCF:53:1,2014-05-02T07:45:00Z,26.6493,-81.8810,2.11,3.4,124.5,-9999.0,'1111122,1111122,1111122' 
SCCF RECON,ioos:station:SCCF:53:1,2014-05-02T08:00:00Z,26.6493,-81.8810,2.11,3.5,134.4,-9999.0,'1111122,1111122,1111122' 
SCCF RECON,ioos:station:SCCF:53:1,2014-05-02T08:15:00Z,26.6493,-81.8810,2.11,3.7,143.8,-9999.0,'1111122,1111122,1111122' 
SCCF RECON,ioos:station:SCCF:53:1,2014-05-02T08:30:00Z,26.6493,-81.8810,2.11,3.7,164.3,-9999.0,'1111122,1111122,1111122' 
SCCF RECON,ioos:station:SCCF:53:1,2014-05-02T08:45:00Z,26.6493,-81.8810,2.11,3.4,142.8,-9999.0,'1111122,1111122,1111122' 
SCCF RECON,ioos:station:SCCF:53:1,2014-05-02T09:00:00Z,26.6493,-81.8810,2.11,3.0,139.2,-9999.0,'1111122,1111122,1111122' 
SCCF RECON,ioos:station:SCCF:53:1,2014-05-02T09:15:00Z,26.6493,-81.8810,2.11,2.9,139.5,-9999.0,'1111122,1111122,1111122' 
SCCF RECON,ioos:station:SCCF:53:1,2014-05-02T09:30:00Z,26.6493,-81.8810,2.11,2.9,146.9,-9999.0,'1111122,1111122,1111122' 
SCCF RECON,ioos:station:SCCF:53:1,2014-05-02T09:45:00Z,26.6493,-81.8810,2.11,3.7,142.2,-9999.0,'1111122,1111122,1111122' 
SCCF RECON,ioos:station:SCCF:53:1,2014-05-02T10:00:00Z,26.6493,-81.8810,2.11,4.1,155.8,-9999.0,'1111122,1111122,1111122' 
SCCF RECON,ioos:station:SCCF:53:1,2014-05-02T10:15:00Z,26.6493,-81.8810,2.11,3.5,143.8,-9999.0,'1111122,1111122,1111122' 
SCCF RECON,ioos:station:SCCF:53:1,2014-05-02T10:30:00Z,26.6493,-81.8810,2.11,3.9,150.6,-9999.0,'1111122,1111122,1111122' 
SCCF RECON,ioos:station:SCCF:53:1,2014-05-02T10:45:00Z,26.6493,-81.8810,2.11,2.5,153.5,-9999.0,'1111122,1111122,1111122' 
SCCF RECON,ioos:station:SCCF:53:1,2014-05-02T11:00:00Z,26.6493,-81.8810,2.11,3.8,148.2,-9999.0,'1111122,1111122,1111122' 
SCCF RECON,ioos:station:SCCF:53:1,2014-05-02T11:15:00Z,26.6493,-81.8810,2.11,2.6,167.7,-9999.0,'1111122,1111122,1111122' 
SCCF RECON,ioos:station:SCCF:53:1,2014-05-02T11:30:00Z,26.6493,-81.8810,2.11,3.4,166.2,-9999.0,'1111122,1111122,1111122' 
SCCF RECON,ioos:station:SCCF:53:1,2014-05-02T11:45:00Z,26.6493,-81.8810,2.11,4.2,148.9,-9999.0,'1111122,1111122,1111122' 
SCCF RECON,ioos:station:SCCF:53:1,2014-05-02T12:00:00Z,26.6493,-81.8810,2.11,3.6,162.1,-9999.0,'1111122,1111122,1111122' 
SCCF RECON,ioos:station:SCCF:53:1,2014-05-02T12:15:00Z,26.6493,-81.8810,2.11,3.3,147.9,-9999.0,'1111122,1111122,1111122' 
SCCF RECON,ioos:station:SCCF:53:1,2014-05-02T12:30:00Z,26.6493,-81.8810,2.11,3.7,162.2,-9999.0,'1111122,1111122,1111122' 
SCCF RECON,ioos:station:SCCF:53:1,2014-05-02T12:45:00Z,26.6493,-81.8810,2.11,3.2,161.5,-9999.0,'1111122,1111122,1111122' 
SCCF RECON,ioos:station:SCCF:53:1,2014-05-02T13:00:00Z,26.6493,-81.8810,2.11,3.2,193.4,-9999.0,'1111122,1111122,1111122' 
SCCF RECON,ioos:station:SCCF:53:1,2014-05-02T13:15:00Z,26.6493,-81.8810,2.11,2.7,159.0,-9999.0,'1111122,1111122,1111122' 
SCCF RECON,ioos:station:SCCF:53:1,2014-05-02T13:30:00Z,26.6493,-81.8810,2.11,3.2,171.0,-9999.0,'1111122,1111122,1111122' 
SCCF RECON,ioos:station:SCCF:53:1,2014-05-02T13:45:00Z,26.6493,-81.8810,2.11,4.4,163.7,-9999.0,'1111122,1111122,1111122' 
SCCF RECON,ioos:station:SCCF:53:1,2014-05-02T14:00:00Z,26.6493,-81.8810,2.11,4.8,190.3,-9999.0,'1111122,1111122,1111122' 
SCCF RECON,ioos:station:SCCF:53:1,2014-05-02T14:15:00Z,26.6493,-81.8810,2.11,6.9,186.9,-9999.0,'1111122,1111122,1111122' 
SCCF RECON,ioos:station:SCCF:53:1,2014-05-02T14:30:00Z,26.6493,-81.8810,2.11,7.8,196.5,-9999.0,'1111122,1111122,1111122' 
SCCF RECON,ioos:station:SCCF:53:1,2014-05-02T14:45:00Z,26.6493,-81.8810,2.11,6.3,197.7,-9999.0,'1111122,1111122,1111122' 
SCCF RECON,ioos:station:SCCF:53:1,2014-05-02T15:00:00Z,26.6493,-81.8810,2.11,6.4,174.1,-9999.0,'1111122,1111122,1111122' 
SCCF RECON,ioos:station:SCCF:53:1,2014-05-02T15:15:00Z,26.6493,-81.8810,2.11,8.7,210.8,-9999.0,'1111122,1111122,1111122' 
SCCF RECON,ioos:station:SCCF:53:1,2014-05-02T15:30:00Z,26.6493,-81.8810,2.11,5.4,187.2,-9999.0,'1111122,1111122,1111122' 
SCCF RECON,ioos:station:SCCF:53:1,2014-05-02T15:45:00Z,26.6493,-81.8810,2.11,7.4,200.3,-9999.0,'1111122,1111122,1111122' 
SCCF RECON,ioos:station:SCCF:53:1,2014-05-02T16:00:00Z,26.6493,-81.8810,2.11,9.4,207.5,-9999.0,'1111122,1111122,1111122' 
SCCF RECON,ioos:station:SCCF:53:1,2014-05-02T16:15:00Z,26.6493,-81.8810,2.11,8.8,195.9,-9999.0,'1111122,1111122,1111122' 
SCCF RECON,ioos:station:SCCF:53:1,2014-05-02T16:30:00Z,26.6493,-81.8810,2.11,8.4,207.4,-9999.0,'1111122,1111122,1111122' 
SCCF RECON,ioos:station:SCCF:53:1,2014-05-02T16:45:00Z,26.6493,-81.8810,2.11,7.5,200.5,-9999.0,'1111122,1111122,1111122' 
SCCF RECON,ioos:station:SCCF:53:1,2014-05-02T17:00:00Z,26.6493,-81.8810,2.11,8.7,196.6,-9999.0,'1111122,1111122,1111122' 
SCCF RECON,ioos:station:SCCF:53:1,2014-05-02T17:15:00Z,26.6493,-81.8810,2.11,9.1,203.7,-9999.0,'1111122,1111122,1111122' 
SCCF RECON,ioos:station:SCCF:53:1,2014-05-02T17:30:00Z,26.6493,-81.8810,2.11,8.7,215.1,-9999.0,'1111122,1111122,1111122' 
SCCF RECON,ioos:station:SCCF:53:1,2014-05-02T17:45:00Z,26.6493,-81.8810,2.11,9.9,199.2,-9999.0,'1111122,1111122,1111122' 
SCCF RECON,ioos:station:SCCF:53:1,2014-05-02T18:00:00Z,26.6493,-81.8810,2.11,9.2,202.4,-9999.0,'1111122,1111122,1111122' 
SCCF RECON,ioos:station:SCCF:53:1,2014-05-02T18:15:00Z,26.6493,-81.8810,2.11,10.2,195.8,-9999.0,'1111122,1111122,1111122' 
SCCF RECON,ioos:station:SCCF:53:1,2014-05-02T18:30:00Z,26.6493,-81.8810,2.11,8.5,198.7,-9999.0,'1111122,1111122,1111122' 
SCCF RECON,ioos:station:SCCF:53:1,2014-05-02T18:45:00Z,26.6493,-81.8810,2.11,9.6,213.7,-9999.0,'1111122,1111122,1111122' 
SCCF RECON,ioos:station:SCCF:53:1,2014-05-02T19:00:00Z,26.6493,-81.8810,2.11,11.7,202.7,-9999.0,'1111122,1111122,1111122' 
SCCF RECON,ioos:station:SCCF:53:1,2014-05-02T19:15:00Z,26.6493,-81.8810,2.11,9.2,208.2,-9999.0,'1111122,1111122,1111122' 
SCCF RECON,ioos:station:SCCF:53:1,2014-05-02T19:30:00Z,26.6493,-81.8810,2.11,10.2,212.0,-9999.0,'1111122,1111122,1111122' 
SCCF RECON,ioos:station:SCCF:53:1,2014-05-02T19:45:00Z,26.6493,-81.8810,2.11,10.5,202.1,-9999.0,'1111122,1111122,1111122' 
SCCF RECON,ioos:station:SCCF:53:1,2014-05-02T20:00:00Z,26.6493,-81.8810,2.11,9.2,211.4,-9999.0,'1111122,1111122,1111122' 
SCCF RECON,ioos:station:SCCF:53:1,2014-05-02T20:15:00Z,26.6493,-81.8810,2.11,9.2,211.2,-9999.0,'1111122,1111122,1111122' 
SCCF RECON,ioos:station:SCCF:53:1,2014-05-02T20:30:00Z,26.6493,-81.8810,2.11,7.7,206.5,-9999.0,'1111122,1111122,1111122' 
SCCF RECON,ioos:station:SCCF:53:1,2014-05-02T20:45:00Z,26.6493,-81.8810,2.11,9.8,219.8,-9999.0,'1111122,1111122,1111122' 
SCCF RECON,ioos:station:SCCF:53:1,2014-05-02T21:00:00Z,26.6493,-81.8810,2.11,8.4,195.2,-9999.0,'1111122,1111122,1111122' 
SCCF RECON,ioos:station:SCCF:53:1,2014-05-02T21:15:00Z,26.6493,-81.8810,2.11,8.5,215.6,-9999.0,'1111122,1111122,1111122' 
SCCF RECON,ioos:station:SCCF:53:1,2014-05-02T21:30:00Z,26.6493,-81.8810,2.11,6.7,199.0,-9999.0,'1111122,1111122,1111122' 
SCCF RECON,ioos:station:SCCF:53:1,2014-05-02T21:45:00Z,26.6493,-81.8810,2.11,7.2,208.8,-9999.0,'1111122,1111122,1111122' 
SCCF RECON,ioos:station:SCCF:53:1,2014-05-02T22:00:00Z,26.6493,-81.8810,2.11,6.4,207.4,-9999.0,'1111122,1111122,1111122' 
SCCF RECON,ioos:station:SCCF:53:1,2014-05-02T22:15:00Z,26.6493,-81.8810,2.11,7.8,219.4,-9999.0,'1111122,1111122,1111122' 
SCCF RECON,ioos:station:SCCF:53:1,2014-05-02T22:30:00Z,26.6493,-81.8810,2.11,7.5,212.3,-9999.0,'1111122,1111122,1111122' 
SCCF RECON,ioos:station:SCCF:53:1,2014-05-02T22:45:00Z,26.6493,-81.8810,2.11,8.9,276.8,-9999.0,'1111122,1111122,1111122' 
SCCF RECON,ioos:station:SCCF:53:1,2014-05-02T23:00:00Z,26.6493,-81.8810,2.11,3.6,298.9,-9999.0,'1111122,1111122,1111122' 
SCCF RECON,ioos:station:SCCF:53:1,2014-05-02T23:15:00Z,26.6493,-81.8810,2.11,4.6,322.5,-9999.0,'1111122,1111122,1111122' 
SCCF RECON,ioos:station:SCCF:53:1,2014-05-02T23:30:00Z,26.6493,-81.8810,2.11,2.6,342.5,-9999.0,'1111122,1111122,1111122' 
SCCF RECON,ioos:station:SCCF:53:1,2014-05-02T23:45:00Z,26.6493,-81.8810,2.11,3.2,39.6,-9999.0,'1111122,1111122,1111122' 
SCCF RECON,ioos:station:SCCF:53:1,2014-05-03T00:00:00Z,26.6493,-81.8810,2.11,3.8,30.4,-9999.0,'1111122,1111122,1111122' 
SCCF RECON,ioos:station:SCCF:53:1,2014-05-03T00:15:00Z,26.6493,-81.8810,2.11,4.9,37.6,-9999.0,'1111122,1111122,1111122' 
SCCF RECON,ioos:station:SCCF:53:1,2014-05-03T00:30:00Z,26.6493,-81.8810,2.11,4.9,34.4,-9999.0,'1111122,1111122,1111122' 
SCCF RECON,ioos:station:SCCF:53:1,2014-05-03T00:45:00Z,26.6493,-81.8810,2.11,3.8,36.3,-9999.0,'1111122,1111122,1111122' 